Terminal Aerodrome Forecast
Issued by NWS Portland, OR

Home | Current Version | Previous Version | Text Only | Print | Product List | Glossary On
Versions: 1 2 3 4 5 6 7 8 9 10 11 12 13 14 15
000
FTUS46 KPQR 181322 AAA
TAFTTD
TAF AMD
KTTD 181322Z 1813/1912 VRB03KT P6SM BKN015
     FM181800 31006KT P6SM SKC
     FM190900 VRB03KT P6SM BKN025=

USA.gov is the U.S. government's official web portal to all federal, state and local government web resources and services.